Wind_Gust
10 14 18 22 13 10 10 12 14 11 10 8 7 6 11 11 9 6 9 13 5 12 14 13 11 11 16 17 12 12 12 14 18 20 20 21 22 24 23 21 20 24 21 11 11 14 16 16 16 15 15 15 13 15 17 18 19 19 20 18 18 16 17 18 19 20 18 16 13 14 17 16 15 14 11 11 11 13 15 14 14 14 15 13 13 14
8 12 17 10 13 14 14 12 8 9 5 8 8 9 14 9 11 6 12 8 6 9 13 7 10 15 16 15 11 10 13 20 23 23 24 25 26 25 24 24 21 23 10 13 11 13 16 17 15 16 16 15 18 16 16 17 20 18 17 18 18 17 17 18 17 18 19 16 21 19 18 16 16 15 14 13 13 14 13 14 13 13 13 14 14 14
13 21 11 13 11 10 10 10 9 11 9 6 12 9 13 11 9 12 11 11 9 11 18 6 12 17 18 12 13 12 10 14 21 24 27 29 28 28 28 25 21 22 20 16 14 13 15 15 14 15 16 17 16 17 17 17 18 18 18 15 15 16 18 17 16 17 18 17 16 17 17 18 15 10 12 14 14 14 15 14 14 13 13 15 15 15
12 18 13 11 12 11 8 8 10 7 6 9 8 10 20 7 10 12 7 7 8 11 11 8 17 20 13 9 10 9 8 10 11 19 23 22 26 28 29 28 27 25 24 19 18 17 16 16 16 16 17 18 17 17 17 16 18 18 16 15 15 19 18 17 17 14 16 15 14 13 15 14 13 14 14 12 12 13 14 15 13 13 14 15 15 16
12 8 9 12 11 14 11 8 10 11 13 7 11 13 14 8 11 15 13 8 10 11 8 14 15 18 8 10 10 9 10 10 14 17 21 27 24 19 15 19 22 25 24 19 16 15 15 15 16 16 16 19 18 17 16 16 17 15 16 14 13 16 17 16 17 18 17 18 16 16 16 15 16 14 13 13 13 12 13 14 13 14 14 15 15 15
14 12 9 14 9 8 10 9 11 11 14 8 11 16 13 13 16 14 6 10 11 12 7 9 13 13 7 11 14 12 10 11 8 14 23 28 27 22 22 23 19 21 20 20 16 15 15 15 15 15 16 19 17 17 15 15 14 14 15 16 14 14 16 17 18 20 19 18 18 20 19 18 16 16 17 17 19 16 16 17 14 13 15 16 14 14
14 9 16 13 12 11 12 12 9 13 12 6 13 19 21 20 14 8 9 7 11 12 8 7 11 15 9 12 12 12 12 14 11 15 18 21 24 23 22 20 21 21 18 9 13 13 14 15 15 15 15 20 18 16 15 15 14 16 17 16 13 14 14 17 18 19 18 18 19 20 20 19 20 20 17 15 17 17 16 15 14 14 13 13 14 12
11 7 9 7 10 11 9 13 12 18 12 13 8 11 11 12 13 13 13 15 15 8 9 6 13 19 18 14 8 12 16 16 13 13 15 18 18 18 17 19 19 20 20 16 14 13 13 14 15 16 15 18 20 16 16 14 16 17 16 14 13 13 15 17 19 20 20 20 19 17 16 17 18 18 18 16 16 13 14 15 13 13 12 10 11 12
10 12 12 11 8 10 16 16 11 16 18 12 6 13 13 16 13 11 13 12 8 8 16 7 8 13 14 12 8 10 15 13 12 10 10 12 13 15 17 15 15 16 17 15 13 13 14 16 13 16 15 16 20 18 18 15 16 17 16 14 13 15 15 17 18 19 20 18 19 17 16 15 15 15 17 17 16 15 13 13 12 12 12 8 7 9
8 14 18 16 17 18 13 9 18 19 17 11 11 9 9 9 8 11 11 12 9 9 14 11 9 15 14 10 9 8 9 15 13 16 9 9 11 12 11 11 13 12 12 11 10 12 12 12 11 16 16 17 17 17 16 15 17 17 17 15 15 15 15 17 19 18 17 15 14 15 13 14 16 17 17 17 17 15 14 14 13 11 10 9 9 8
6 6 8 12 19 17 13 10 15 22 12 10 13 11 9 10 8 9 8 8 10 11 14 10 13 12 16 6 8 8 11 11 17 14 11 9 11 9 9 10 12 13 9 9 10 11 12 11 11 17 16 15 15 15 16 15 16 16 15 16 17 16 16 17 20 18 18 15 15 15 15 16 18 19 19 20 17 16 15 16 12 11 10 9 10 10
5 6 8 12 6 7 6 9 5 6 5 6 6 7 9 8 8 7 7 7 9 16 8 10 11 12 15 7 8 9 13 12 14 16 12 10 14 13 9 14 14 14 13 12 12 11 11 13 10 17 14 16 13 15 16 15 16 17 16 16 16 15 16 17 19 18 16 15 15 14 16 17 17 19 22 22 20 18 16 15 14 11 10 9 9 9
11 16 9 8 7 12 8 8 9 8 8 11 9 8 10 8 7 10 10 11 16 15 9 8 9 9 20 9 12 17 16 16 15 16 12 10 11 14 13 15 17 17 18 20 18 17 12 8 10 8 17 16 13 13 16 15 15 16 16 15 17 16 17 17 17 15 14 14 15 15 16 15 16 16 15 17 17 14 15 15 13 13 12 11 10 9
13 7 7 11 6 12 13 20 11 10 15 15 18 15 14 11 8 6 8 7 12 13 9 7 7 13 9 8 12 15 16 17 17 12 10 9 11 16 17 18 18 20 20 17 16 20 17 17 13 12 12 18 18 14 17 15 14 15 15 13 14 16 17 16 14 13 13 14 14 14 15 15 16 14 14 15 16 14 13 12 13 12 12 11 10 10
10 10 16 14 13 13 22 23 21 8 18 20 6 20 14 18 18 12 15 15 14 10 7 7 12 13 12 7 12 12 14 16 18 16 12 15 18 17 16 13 14 16 17 19 18 17 15 17 16 15 15 14 19 17 17 17 14 13 15 12 12 11 14 13 13 12 12 13 13 13 14 15 14 15 15 14 15 15 15 12 12 10 9 10 9 10
10 14 12 11 6 12 20 13 12 12 11 7 8 9 9 15 13 13 7 9 7 7 6 11 11 8 9 8 8 9 14 19 18 17 17 17 18 17 12 14 14 15 16 19 20 21 17 16 13 13 14 9 16 20 18 17 18 15 13 16 15 14 8 9 11 14 15 13 13 13 14 15 14 14 14 13 13 13 13 14 13 12 9 8 10 9
6 11 5 9 7 13 14 13 14 15 16 15 13 17 12 9 13 14 6 9 4 7 8 5 12 9 10 9 8 13 16 17 16 15 13 15 14 12 12 14 15 15 16 17 18 17 16 16 14 16 16 12 13 19 18 17 19 18 18 20 21 20 18 20 17 13 14 14 14 15 16 15 15 16 16 16 15 14 11 10 9 11 10 10 10 11
9 10 6 6 12 7 6 6 5 6 10 20 16 15 9 7 10 10 12 6 5 11 10 7 6 10 10 12 9 14 17 14 14 13 10 11 17 17 14 15 16 16 16 16 17 16 15 14 13 16 17 12 12 16 14 17 17 19 18 18 22 23 23 19 11 11 13 15 14 15 15 15 16 16 15 15 16 14 14 11 10 10 11 10 11 11
8 13 11 7 7 5 6 9 11 6 7 9 8 11 16 9 10 6 10 6 7 8 8 8 7 9 12 7 9 12 15 14 12 12 12 15 15 16 16 15 15 14 15 17 17 16 15 15 16 16 14 15 14 11 17 16 16 15 15 15 17 20 19 14 11 12 11 13 13 14 16 16 15 14 14 14 15 15 16 15 13 12 12 12 12 13
6 10 13 6 8 8 6 8 11 12 7 7 8 12 8 9 7 14 14 9 11 5 4 6 7 12 9 8 7 11 11 11 11 10 11 15 15 14 15 15 15 14 13 13 17 16 14 14 15 16 19 18 18 15 13 19 19 17 16 15 13 11 9 11 13 12 12 11 10 11 12 12 14 15 15 15 16 15 15 15 15 14 13 13 12 13
10 5 10 6 8 7 13 6 8 12 14 10 11 8 9 7 7 11 8 7 12 12 9 8 9 10 8 7 7 9 10 9 9 10 12 11 12 15 16 16 15 14 13 12 11 10 9 12 12 11 14 16 15 17 16 13 19 20 17 15 15 16 14 13 9 10 12 13 13 14 14 14 13 13 13 14 14 15 14 13 13 14 13 13 12 13
14 8 14 10 11 8 9 6 7 9 7 6 13 16 16 16 15 13 12 8 7 12 11 11 13 9 7 6 7 9 7 7 8 9 12 11 12 11 11 14 14 12 12 12 11 11 9 6 6 8 10 11 13 19 16 17 20 18 16 18 17 18 18 16 17 13 12 12 14 15 15 14 13 14 14 13 13 12 14 14 13 14 14 13 13 13
10 11 8 9 12 6 5 8 6 7 8 7 7 6 7 7 9 18 18 10 7 7 8 8 6 7 9 7 8 8 10 9 9 11 14 13 13 14 15 16 14 14 13 12 12 12 11 12 11 8 7 9 11 15 15 14 14 16 16 18 18 19 17 16 14 14 15 15 15 14 14 15 14 14 13 14 13 13 14 13 13 14 15 14 13 11
6 10 11 7 9 9 9 6 7 6 8 9 12 8 6 10 6 10 11 12 14 10 9 7 11 9 5 11 9 9 11 13 15 13 14 15 14 16 16 16 16 16 16 16 15 14 15 14 11 12 11 10 10 8 8 12 14 14 13 13 14 15 15 16 12 13 14 14 14 14 16 16 16 16 15 14 13 13 12 13 13 13 14 14 13 13
14 7 9 8 10 11 8 9 8 6 11 10 6 9 8 7 6 6 9 6 10 11 8 14 17 8 8 11 12 14 17 17 17 16 15 16 15 16 16 16 18 18 18 18 19 18 18 18 18 15 12 11 12 14 12 10 9 10 8 10 11 12 14 15 12 13 12 13 14 14 15 15 16 17 17 15 13 12 12 13 13 12 13 13 13 12
7 4 8 10 13 15 12 11 13 10 6 8 7 10 12 12 8 8 8 10 14 9 8 11 10 7 13 13 13 14 17 17 15 15 16 17 16 15 16 19 17 17 18 19 21 21 20 17 18 17 15 12 11 12 12 11 12 11 13 12 10 12 13 13 13 11 11 13 15 14 14 15 15 17 17 15 13 12 12 12 12 13 11 13 13 10
11 7 8 7 11 15 8 7 6 7 6 9 10 11 14 10 9 7 8 9 18 10 11 9 10 19 16 14 13 13 15 16 14 16 18 18 18 20 19 20 19 19 17 19 20 19 20 22 20 18 15 14 14 13 12 14 15 13 12 12 13 11 12 11 10 9 10 11 13 13 10 13 13 14 16 15 11 8 8 9 10 12 12 11 11 11
12 11 9 12 15 10 5 7 6 7 9 8 10 11 12 13 8 5 10 13 11 19 11 8 15 23 17 14 11 13 14 16 16 15 16 17 18 19 19 20 20 22 20 21 22 22 22 19 20 19 18 19 18 14 13 14 13 11 9 11 8 9 7 8 9 9 8 11 12 15 16 12 13 19 17 16 11 9 9 9 8 8 9 10 12 12
11 8 5 7 11 10 8 9 11 15 13 11 11 12 14 13 12 9 6 7 10 11 13 17 20 17 10 10 10 11 12 15 15 16 15 15 16 16 18 21 23 21 19 23 21 18 18 20 20 22 21 20 16 17 16 16 15 13 12 11 8 7 12 12 11 10 10 12 18 20 17 14 11 12 14 14 13 12 9 8 8 9 9 8 9 8
14 8 6 7 8 10 12 10 8 14 11 13 15 13 12 14 14 14 13 10 5 7 15 27 19 16 10 10 10 11 12 17 17 16 16 17 17 17 20 20 21 19 19 21 19 17 16 19 21 20 20 21 19 19 19 19 19 18 14 12 11 13 13 13 13 13 14 14 12 12 12 11 11 12 8 12 12 12 12 7 8 7 9 8 8 8
7 7 7 6 7 9 11 10 9 9 10 15 14 15 14 11 15 14 12 13 15 21 21 22 21 15 11 12 14 13 14 16 19 19 17 15 15 17 18 19 20 20 21 20 17 19 20 22 19 18 20 20 20 17 17 17 18 18 18 16 15 15 15 15 16 16 16 15 13 13 12 11 10 11 11 11 12 5 8 8 6 6 8 8 8 8
11 9 7 6 8 3 7 11 8 8 12 16 15 17 17 14 11 11 9 8 8 12 19 19 16 13 13 14 14 14 15 18 19 16 16 15 15 16 18 19 20 21 21 18 17 18 21 22 20 20 20 19 18 18 18 17 18 21 20 19 17 15 16 18 17 17 15 13 13 13 12 13 15 13 10 9 8 9 5 6 6 5 8 9 8 8
8 18 13 10 10 7 6 7 9 9 7 5 10 12 14 8 5 5 10 10 8 10 17 16 7 15 18 17 19 15 16 17 18 16 16 17 16 17 20 20 20 20 18 16 15 18 21 22 20 19 19 20 20 21 20 19 20 22 19 19 16 18 20 20 18 18 17 16 15 13 12 13 13 15 14 10 11 10 8 8 7 7 7 7 7 7
9 15 11 8 12 7 3 6 4 4 11 8 7 7 7 8 7 11 10 10 11 10 9 11 18 19 16 16 23 18 17 17 17 16 16 14 15 19 22 22 21 19 18 16 17 19 19 18 18 19 19 19 20 21 19 19 21 21 19 19 20 22 20 22 21 19 19 19 17 15 15 16 16 14 13 14 11 10 10 8 8 7 6 6 6 7
10 11 11 7 10 10 6 4 6 10 6 5 5 8 8 12 14 18 14 14 12 19 20 20 18 16 15 14 17 20 21 21 19 20 18 17 15 16 19 20 20 18 17 17 20 19 17 17 17 17 19 20 20 18 19 21 19 18 23 23 25 22 22 22 23 22 20 20 18 17 17 16 17 17 15 16 15 14 14 13 11 10 9 8 7 8
13 12 11 8 8 9 10 10 11 4 3 5 6 6 6 6 6 5 14 14 13 10 19 19 17 18 18 17 17 19 23 23 24 22 19 18 16 15 17 19 16 16 19 18 19 18 17 18 18 18 17 14 18 19 22 19 15 21 21 21 22 22 21 20 24 22 19 20 20 19 17 17 17 16 15 16 15 15 15 14 12 11 10 10 11 11
12 11 10 11 5 10 8 10 10 8 7 6 5 7 10 8 9 6 6 7 9 7 12 20 19 19 18 17 19 17 15 20 24 20 17 17 16 17 18 19 16 17 18 18 17 16 15 16 17 16 16 18 19 20 19 17 16 19 21 23 21 21 20 21 23 20 19 20 20 19 18 17 18 18 18 17 18 16 15 14 13 12 10 11 14 14
13 11 10 11 6 6 15 13 10 6 9 6 5 7 6 8 9 10 5 7 7 9 9 15 19 19 17 17 17 16 10 24 21 13 13 14 14 15 16 15 15 16 17 15 13 14 15 15 16 16 17 18 21 19 16 17 17 19 23 22 19 21 23 24 22 19 18 18 18 18 18 18 18 17 17 18 19 17 16 15 14 13 11 14 15 14
15 13 9 9 12 8 7 10 8 7 4 5 10 11 11 11 10 7 7 7 5 11 11 15 14 13 13 15 10 7 6 16 13 11 10 12 13 13 14 14 15 16 16 15 12 12 12 14 16 16 17 18 19 17 15 15 17 21 21 18 18 20 21 21 19 19 18 16 15 16 16 16 17 16 16 17 16 15 17 17 15 14 14 12 12 13
14 10 8 12 7 5 8 7 7 5 7 6 11 13 14 11 6 8 9 6 9 15 14 16 16 12 12 10 9 17 11 21 14 10 6 7 8 8 11 12 12 14 14 14 14 12 11 11 13 17 17 17 15 12 12 14 20 20 19 17 16 20 19 17 16 15 15 14 15 15 16 14 15 15 15 15 13 13 13 11 13 14 14 16 15 13
13 10 13 8 6 6 8 10 11 7 5 9 14 18 15 7 6 8 7 8 17 16 15 15 16 13 9 8 5 10 10 13 16 14 10 8 11 12 12 12 13 13 13 13 14 11 14 13 16 17 16 13 11 11 10 13 21 18 15 15 19 18 15 14 14 15 14 15 17 18 17 16 16 15 15 13 12 10 12 12 12 12 14 12 14 14
9 6 5 6 10 8 6 8 10 9 5 13 17 16 11 5 5 4 10 9 21 21 18 18 16 11 8 10 14 19 20 18 16 15 14 11 12 12 12 14 16 16 14 13 12 13 14 14 15 16 16 14 14 13 12 15 21 17 15 16 18 13 11 12 12 13 14 15 16 16 16 17 16 14 14 14 13 13 14 13 13 12 10 10 9 11
10 9 8 9 6 5 8 11 7 8 5 18 24 10 10 6 8 9 10 14 18 20 17 11 11 12 16 19 19 21 20 18 15 15 15 13 13 13 13 13 14 14 12 13 14 12 14 15 16 16 14 14 13 12 13 18 19 17 15 19 14 12 12 11 10 11 13 14 14 14 14 15 15 14 13 13 14 14 15 13 13 12 11 10 11 12
6 9 6 5 8 7 9 9 7 8 15 17 13 7 10 9 9 9 7 18 13 15 13 14 12 15 17 22 21 20 19 20 16 14 14 14 13 14 13 13 13 13 13 13 14 13 14 17 16 16 15 15 14 13 11 14 17 15 16 15 12 12 12 13 12 12 13 13 12 12 13 13 13 13 13 13 13 13 14 13 12 12 13 12 12 12
17 11 5 11 8 9 10 8 6 7 11 14 13 13 11 12 10 8 13 11 15 11 8 14 15 13 16 21 20 21 20 15 15 12 14 11 11 11 12 11 10 11 12 12 12 11 13 17 17 17 16 15 14 13 13 12 16 14 14 11 10 11 12 12 12 13 13 13 12 12 11 11 12 13 13 13 13 13 13 13 13 14 13 13 13 13
6 10 8 15 19 21 22 13 9 11 13 15 16 15 15 14 15 16 14 16 13 11 10 15 15 16 14 12 21 17 17 17 17 14 13 11 12 11 11 11 11 10 11 12 12 12 13 14 15 16 17 16 14 15 14 15 15 16 11 8 9 9 9 10 11 13 13 13 13 13 13 13 13 14 15 14 14 13 13 12 13 13 13 13 12 12
10 6 7 13 8 9 15 11 13 12 12 14 16 17 18 19 18 18 18 17 15 15 18 15 16 17 16 15 15 17 16 15 16 14 12 11 11 11 11 11 9 9 10 12 9 8 11 12 15 16 16 16 13 14 15 14 15 13 12 11 10 10 11 12 13 13 12 12 13 12 13 13 14 14 14 14 14 14 14 13 13 13 13 13 14 14
14 7 18 16 15 14 13 10 15 15 15 14 13 18 20 20 22 20 18 14 15 17 17 16 16 18 15 15 13 15 12 11 15 13 13 12 12 11 11 11 11 12 10 9 8 10 12 14 14 14 14 15 12 13 14 15 15 14 13 12 11 12 14 14 13 14 14 13 12 12 12 12 6 9 13 13 12 12 13 13 14 15 16 15 15 14
9 10 10 6 20 19 15 15 17 18 19 17 17 17 18 19 22 21 20 19 18 19 18 15 14 13 13 13 11 13 12 8 9 11 13 12 13 12 12 12 12 12 10 10 9 9 12 12 13 12 13 12 11 12 13 13 14 13 13 12 11 11 14 14 13 13 13 13 13 13 12 11 12 12 12 13 13 14 14 13 12 12 12 14 14 13
11 22 13 17 19 12 11 12 5 13 15 13 15 16 19 19 21 21 20 21 19 17 15 14 10 8 9 9 11 12 12 9 7 8 11 10 11 11 11 12 11 10 10 9 9 10 11 11 12 12 12 11 10 11 12 13 13 13 13 12 11 12 13 13 13 13 13 14 14 13 13 13 14 14 14 14 14 14 16 10 12 14 14 14 9 8
10 9 6 8 12 15 10 9 5 11 14 10 9 7 8 9 16 18 16 14 12 13 15 17 14 10 9 7 5 12 13 12 10 9 11 9 9 8 9 10 11 10 9 8 10 10 10 10 10 11 11 10 9 11 12 12 13 13 13 12 11 11 12 12 12 13 13 13 14 12 12 13 13 14 14 14 14 13 12 12 16 12 13 10 9 8
Wind_Speed
2 6 7 10 6 5 5 7 8 5 3 3 2 2 4 5 3 1 4 7 2 5 7 7 6 5 9 10 5 5 6 8 10 12 12 12 12 13 13 12 11 15 12 6 5 8 10 9 8 7 6 7 7 8 9 10 10 11 10 9 9 9 9 9 9 10 9 8 6 6 8 8 7 6 5 5 5 5 6 6 6 6 6 6 6 7
3 5 8 3 8 9 9 7 4 4 1 4 4 4 6 3 4 1 6 3 1 4 6 2 4 9 9 8 5 2 6 12 13 14 14 15 16 14 15 14 13 14 4 7 5 8 10 9 9 9 8 9 9 8 9 10 11 11 10 11 9 8 9 10 9 9 9 7 9 9 8 7 7 7 6 6 5 6 6 7 6 6 6 7 7 6
5 10 4 7 4 5 5 5 5 7 5 2 5 3 6 4 2 6 6 5 3 5 8 1 6 9 11 6 7 4 4 6 11 14 15 16 16 15 15 15 13 13 12 9 8 8 8 9 9 8 9 9 9 9 9 9 11 11 11 9 9 8 10 9 8 8 8 8 8 8 8 8 6 5 5 6 6 7 7 6 7 6 6 7 7 7
5 8 6 6 7 7 4 4 6 3 1 4 3 4 9 2 3 3 3 2 4 3 4 4 9 10 7 3 4 2 1 4 6 12 14 12 14 15 16 15 13 15 14 11 10 9 9 9 9 9 9 9 9 9 9 10 11 10 9 8 8 10 10 9 9 7 9 9 8 7 8 8 6 6 6 6 6 7 7 7 6 6 6 7 7 8
3 3 4 7 7 9 6 4 6 5 5 3 6 6 6 2 5 6 3 1 4 6 3 8 7 7 2 4 3 3 3 4 7 10 12 15 14 11 8 11 13 15 14 11 9 9 9 9 9 9 9 10 9 9 9 9 9 7 9 8 8 9 10 9 9 10 10 10 9 8 8 7 7 6 6 6 6 6 6 6 6 6 7 7 7 8
7 5 5 9 4 4 6 4 6 5 6 3 6 10 8 8 10 8 1 4 3 4 3 4 4 5 1 4 7 4 3 4 3 7 14 15 15 13 13 12 12 13 12 12 10 9 9 9 9 9 10 11 9 9 8 9 8 8 8 8 8 7 9 9 11 11 9 9 9 10 9 8 7 7 7 8 8 7 7 7 7 7 8 8 7 6
4 5 9 8 7 6 7 6 4 8 5 2 4 13 14 13 9 4 4 2 3 4 2 2 3 3 0 5 6 3 5 7 5 8 10 11 12 13 11 11 12 12 11 3 7 7 8 9 9 9 9 11 10 9 9 8 8 10 9 10 8 7 7 9 10 11 8 10 9 11 10 10 9 9 7 6 7 8 7 7 7 7 6 6 7 6
4 3 5 4 6 6 4 6 6 11 5 4 1 4 6 7 7 8 7 7 5 3 3 2 5 7 7 6 3 4 8 8 6 6 7 6 8 10 10 11 11 11 12 9 8 7 8 8 9 10 9 10 10 9 9 8 9 10 10 9 8 7 8 9 10 10 10 10 9 9 8 8 8 9 9 8 8 7 6 7 7 6 5 4 5 5
6 6 8 7 5 4 7 9 6 10 7 2 2 7 7 9 7 6 6 5 2 3 5 2 3 4 5 3 1 3 8 4 3 3 2 3 6 9 10 8 8 9 11 8 5 6 7 8 8 9 9 10 12 10 10 9 9 9 9 8 8 9 9 9 11 11 11 9 10 9 8 8 7 7 8 8 7 7 6 7 5 5 5 3 2 3
3 7 11 10 8 8 6 4 11 12 8 3 6 4 4 4 3 5 4 4 3 2 5 5 4 5 5 3 2 0 3 6 5 8 2 3 3 6 5 4 7 7 7 4 3 4 5 6 6 9 8 10 9 9 10 9 9 9 9 9 9 10 8 10 11 11 11 9 7 7 7 8 8 8 8 8 8 7 7 7 6 5 4 3 3 2
2 3 2 4 9 8 7 3 8 14 5 5 8 5 3 3 2 3 1 2 3 3 5 5 7 5 5 1 2 2 4 4 8 6 4 1 5 4 5 6 7 7 5 4 4 5 6 5 6 10 9 7 8 8 9 8 9 9 9 10 10 10 9 10 12 11 11 9 8 7 8 9 11 11 11 10 8 8 7 8 6 5 4 3 4 3
1 2 3 4 2 3 2 4 1 2 1 1 1 2 3 2 1 2 2 1 2 5 2 4 5 7 6 1 2 3 7 6 6 8 6 2 5 6 5 8 8 8 7 7 7 6 5 6 6 10 8 8 6 7 8 7 9 10 9 9 10 9 9 10 10 11 9 8 7 7 9 9 9 11 11 12 11 10 9 8 6 4 4 3 3 3
5 7 2 4 2 7 3 4 3 3 4 5 3 2 4 1 0 2 2 3 5 4 3 2 4 3 9 2 4 8 8 9 8 7 5 1 4 7 6 8 9 10 11 12 10 10 7 3 3 4 12 10 8 6 8 7 8 9 9 9 10 10 10 9 10 10 8 8 8 8 9 9 8 8 8 9 9 7 7 7 6 6 5 4 4 3
4 1 1 5 1 5 7 8 4 3 7 7 7 6 5 3 2 1 2 1 3 4 1 1 2 5 2 1 6 8 9 7 7 5 3 4 5 9 9 10 11 11 11 9 7 7 9 9 7 6 7 10 10 8 8 7 7 8 8 8 8 8 9 8 7 6 7 7 7 8 8 8 7 7 7 7 8 7 5 5 6 6 5 5 4 4
3 3 7 7 4 7 11 11 10 3 8 8 2 8 5 7 5 3 5 4 5 3 3 2 5 3 5 1 5 6 7 9 9 7 6 8 10 10 9 8 8 10 10 10 9 9 8 10 9 8 5 7 10 10 10 9 7 6 8 6 6 6 3 4 7 6 7 6 7 7 7 7 6 7 7 6 7 7 7 5 5 4 4 4 3 4
5 5 4 5 2 6 12 6 6 6 4 2 2 1 0 5 1 4 1 3 2 2 2 4 2 1 1 2 2 3 7 11 10 9 10 10 11 9 7 8 8 8 9 9 10 11 10 10 6 4 6 3 9 11 10 10 9 8 7 10 10 9 5 2 5 8 8 7 6 8 8 8 7 6 6 6 5 6 6 7 6 5 3 3 4 3
1 3 1 2 3 7 8 7 7 7 5 5 5 7 4 3 4 5 2 4 1 1 2 2 3 2 2 2 3 7 9 10 9 9 7 8 8 6 6 8 9 8 9 9 9 9 9 10 8 7 6 3 7 10 10 10 10 10 10 12 13 13 12 14 11 8 8 8 8 9 9 8 8 8 9 8 8 7 5 4 4 5 4 4 4 5
2 2 1 2 7 3 3 1 1 1 3 7 6 5 4 1 3 2 3 1 0 3 1 1 1 2 3 2 2 7 8 8 8 7 6 7 9 10 7 9 8 9 9 10 10 9 8 7 7 9 6 6 7 10 9 11 10 10 10 11 14 14 14 11 7 4 5 8 8 8 8 8 8 8 8 8 8 7 6 5 4 4 5 4 4 5
3 4 3 3 2 1 2 5 5 2 3 2 2 5 5 2 4 2 1 1 2 2 1 2 2 2 5 2 2 5 7 6 6 7 7 9 9 9 8 9 9 7 7 9 10 9 8 8 9 9 8 8 8 7 10 8 9 8 9 9 10 10 5 8 6 7 6 7 6 6 8 9 7 7 7 7 8 8 8 8 6 6 5 5 5 6
1 2 3 1 4 3 1 2 3 5 2 3 3 4 3 2 1 4 2 1 2 1 0 2 1 2 2 2 2 3 5 4 5 5 6 9 7 6 8 8 8 8 7 7 9 7 7 7 8 9 12 11 11 9 9 12 11 11 9 7 7 6 4 4 4 5 7 6 5 5 6 6 7 7 7 7 8 7 8 8 8 7 7 6 5 6
2 0 2 1 2 1 5 1 2 5 6 4 4 2 2 2 1 2 3 1 3 2 2 1 2 2 2 2 2 4 4 3 3 6 5 5 7 8 8 9 8 8 7 6 6 5 3 5 6 5 7 9 8 9 8 8 11 11 9 8 9 9 8 7 4 5 6 6 7 8 8 8 7 7 6 7 8 8 7 7 7 7 6 6 5 6
2 1 5 2 3 3 1 2 1 1 1 1 5 7 7 7 6 5 4 2 1 3 2 3 3 3 2 1 2 3 2 3 3 5 6 6 6 5 5 7 8 6 7 7 6 4 4 2 2 3 4 2 6 9 10 9 8 8 9 9 9 10 10 9 9 6 6 6 7 9 8 8 7 7 6 7 7 6 7 7 6 7 7 7 6 6
2 2 2 2 4 1 1 4 1 3 2 2 1 1 2 2 0 6 6 3 1 1 1 1 1 1 2 2 2 3 4 5 5 7 7 6 6 7 7 7 8 7 7 7 5 5 6 6 4 2 3 4 6 8 9 8 2 5 8 10 8 10 10 9 7 7 7 8 8 8 8 8 7 7 7 8 6 7 7 6 6 7 8 7 6 5
2 1 3 1 2 3 3 1 3 2 3 4 5 3 1 3 0 3 3 4 5 4 3 1 3 1 1 5 4 4 6 7 8 7 8 7 7 8 9 10 10 10 10 10 8 7 7 7 6 6 4 3 5 4 4 5 8 7 6 7 7 8 9 9 6 6 7 7 7 8 9 9 8 9 8 8 6 7 6 6 6 6 7 7 6 6
2 1 2 2 2 1 3 3 3 2 2 3 2 3 3 1 2 1 2 0 2 4 1 5 5 2 3 5 6 8 10 10 10 10 9 9 8 8 9 8 8 10 10 10 11 11 11 11 9 6 6 6 7 7 6 3 5 3 2 3 4 6 7 8 5 6 6 7 8 7 8 9 9 10 9 8 7 7 6 6 6 5 6 6 6 5
2 1 2 3 5 6 4 3 4 3 1 2 2 4 6 6 2 3 2 3 4 3 3 3 2 1 7 6 7 9 10 10 9 9 10 10 9 8 8 9 9 10 9 11 12 13 12 9 7 7 8 6 6 7 7 5 4 5 4 4 4 4 6 7 6 5 5 6 7 7 8 8 8 9 10 8 6 7 6 6 5 6 5 6 6 4
3 2 3 0 3 4 1 2 2 2 0 2 2 6 7 4 3 2 3 2 6 4 4 1 3 10 9 8 7 7 8 10 8 9 10 9 10 10 10 10 10 10 10 12 12 11 12 13 12 11 10 8 9 8 7 5 6 6 6 5 5 2 3 4 4 4 4 5 7 6 5 5 6 6 8 8 5 3 3 4 4 6 6 5 5 5
3 3 4 7 9 4 1 2 2 3 3 2 3 5 5 6 2 1 3 2 4 8 3 3 9 12 9 8 6 7 7 9 8 9 9 9 9 10 11 12 13 13 12 12 14 14 12 10 11 12 11 12 11 8 7 6 6 5 4 4 4 4 3 3 4 4 3 3 4 6 9 6 7 10 7 9 6 4 4 4 3 3 3 4 5 5
4 2 1 2 6 5 3 4 6 8 7 6 6 6 7 7 5 3 2 2 5 3 3 10 13 9 5 5 5 5 7 9 9 10 9 9 9 9 11 13 14 13 11 13 13 11 11 12 12 13 13 12 10 10 10 9 8 7 5 4 3 3 7 6 5 5 4 5 8 7 7 6 5 7 3 6 7 7 5 5 4 4 3 3 4 3
4 3 2 3 4 5 7 5 3 8 5 7 9 8 7 8 8 8 7 5 1 1 8 16 13 10 4 4 5 6 7 8 10 9 9 10 10 9 10 12 13 11 12 11 10 10 10 11 12 11 11 12 12 12 11 10 11 10 8 6 6 7 7 7 7 7 8 7 7 7 6 6 7 7 5 4 5 5 5 3 4 3 2 3 3 4
1 2 3 2 2 3 6 5 4 3 5 9 8 8 7 6 9 8 6 8 9 13 13 15 14 8 4 6 7 7 8 9 11 12 10 9 9 10 11 12 12 13 13 12 10 11 12 13 12 11 13 12 12 10 9 10 10 10 10 9 9 9 8 8 9 9 8 8 7 7 6 6 6 6 6 7 7 4 4 2 2 3 2 2 2 4
3 3 2 1 3 1 3 5 3 4 6 10 9 10 10 8 5 5 4 3 3 7 12 12 8 5 6 8 8 8 9 11 11 10 9 9 9 10 11 12 13 13 13 11 10 11 13 13 13 13 12 12 11 11 10 9 10 11 10 9 9 8 9 10 10 9 8 7 7 7 6 5 7 7 5 5 4 5 3 2 3 1 2 3 3 3
2 7 4 3 4 2 1 3 4 3 2 1 5 6 8 4 2 2 5 5 4 6 9 7 2 7 10 9 11 9 10 10 11 9 9 10 10 10 12 12 13 13 12 9 9 11 12 12 11 12 12 12 11 11 12 11 11 11 10 10 8 9 11 11 10 10 10 8 7 7 6 6 7 6 5 4 6 5 4 2 2 3 3 2 2 4
3 7 4 2 3 2 1 2 1 1 4 1 2 4 3 3 3 5 5 5 7 5 3 5 9 11 10 9 13 12 10 10 10 10 9 7 8 12 14 14 13 12 11 10 10 11 12 10 10 10 12 12 12 13 11 11 11 11 10 10 11 12 11 12 12 11 11 11 10 8 8 8 8 7 6 5 5 5 5 3 3 3 3 3 3 2
4 5 3 1 2 4 3 2 2 4 1 2 1 4 3 6 8 11 8 9 7 12 13 12 11 10 9 8 9 12 13 13 12 12 11 10 9 10 12 13 12 12 11 11 13 12 10 10 10 10 12 12 12 11 11 12 11 10 11 12 14 12 13 12 13 12 11 11 10 9 9 8 8 9 8 8 8 7 7 6 4 4 3 3 3 3
3 5 3 2 2 2 3 3 4 1 1 2 2 3 3 2 2 1 8 9 8 6 12 11 11 11 11 11 10 9 13 15 14 14 12 11 10 9 10 12 11 10 11 11 12 11 10 10 11 11 10 8 10 11 12 11 8 11 12 12 12 12 11 11 14 12 11 12 11 11 10 9 9 8 8 8 7 8 8 7 6 5 4 4 4 3
4 3 2 4 2 3 3 4 4 4 3 2 1 3 4 3 4 3 2 3 5 3 7 12 12 12 11 11 12 9 8 10 13 11 11 10 10 11 11 12 10 10 11 12 11 10 10 10 10 10 9 10 11 11 11 9 9 10 11 13 11 12 11 12 13 11 11 11 11 10 10 9 9 9 9 9 9 8 7 7 6 5 3 5 6 6
6 3 3 2 0 1 6 5 4 2 3 2 1 3 2 4 5 6 1 3 3 5 5 9 11 12 10 11 10 10 5 10 11 6 7 8 8 9 10 10 9 10 10 10 9 9 9 9 9 10 10 11 13 11 9 10 9 10 13 12 11 12 13 13 12 10 10 10 10 10 10 10 9 10 9 10 10 9 8 7 6 6 4 6 7 7
5 5 3 1 4 2 2 3 3 2 1 2 5 6 7 6 6 2 3 1 1 7 7 9 9 8 8 9 5 1 1 7 6 4 5 6 8 8 8 9 9 10 10 9 8 7 7 8 10 10 10 11 12 10 9 9 10 12 12 10 10 11 12 12 11 10 10 9 8 9 9 9 9 9 8 8 8 7 8 8 7 6 6 5 5 5
5 3 1 3 2 1 2 2 3 2 2 3 7 7 8 6 2 2 3 2 4 9 8 10 9 7 5 5 6 8 5 10 6 4 3 4 5 5 7 7 8 8 9 9 8 7 7 7 8 10 11 11 9 7 7 8 11 12 10 9 9 11 11 9 9 8 7 7 8 8 8 7 8 8 8 8 7 7 6 4 6 7 7 8 6 5
5 3 5 2 1 2 4 4 4 2 2 4 9 11 9 4 2 3 1 2 8 9 9 9 10 8 5 4 2 4 5 6 9 7 4 3 6 7 7 7 8 8 8 7 8 8 7 7 8 9 9 7 7 6 6 5 9 10 8 8 10 11 8 7 7 8 7 7 9 9 9 8 8 8 7 7 6 5 5 6 5 5 7 6 5 6
3 2 1 1 4 3 1 2 3 3 2 7 10 10 6 2 2 1 3 2 11 12 10 10 10 6 4 5 7 10 10 11 9 8 7 7 7 7 8 9 10 10 8 8 8 8 8 8 9 9 9 8 7 6 6 6 10 9 8 9 10 8 6 6 6 6 7 8 9 8 8 8 8 7 6 6 6 6 6 6 5 5 4 4 4 4
3 3 3 3 2 1 1 3 2 3 1 11 16 4 5 2 2 3 1 9 11 12 10 6 6 6 9 10 11 13 12 11 9 9 9 8 8 8 8 8 8 8 7 7 8 7 8 7 8 8 8 7 7 6 7 9 11 9 8 10 8 6 6 5 5 6 6 7 7 7 7 7 8 7 5 6 6 7 7 6 6 5 5 3 2 3
2 1 2 1 2 1 3 3 2 2 6 9 7 3 5 3 4 4 2 9 7 6 7 7 6 8 10 13 12 12 12 12 10 9 9 8 8 8 8 8 8 8 8 7 8 7 9 10 8 8 8 7 7 7 6 7 9 8 9 8 5 5 5 6 5 6 6 6 6 6 7 7 7 6 6 6 6 6 6 6 5 5 5 4 4 5
9 4 1 4 3 2 3 3 2 3 5 7 7 6 6 7 5 3 7 6 8 5 4 6 8 8 9 13 12 12 11 9 9 8 8 7 7 6 7 6 6 6 6 7 6 6 7 9 10 9 9 7 7 6 6 6 8 8 8 5 4 5 5 5 6 6 6 6 6 6 5 5 5 6 6 6 6 6 6 6 6 6 5 5 6 6
1 4 3 6 7 11 11 7 5 6 7 8 9 8 9 8 9 9 8 8 7 6 5 7 9 9 8 8 11 9 9 10 10 8 7 6 7 6 6 7 6 6 6 6 6 6 7 8 8 9 10 9 7 7 7 7 8 9 5 3 4 3 3 4 5 6 6 6 6 6 6 6 6 6 7 7 6 6 5 5 5 5 5 5 5 4
4 1 1 4 3 2 6 7 7 7 7 8 9 10 11 11 9 10 11 10 8 8 10 9 9 10 10 9 9 10 10 9 9 7 6 6 6 6 6 6 5 4 5 6 4 3 5 7 8 9 9 9 7 7 7 8 7 6 5 5 4 4 4 5 6 6 6 5 6 5 5 6 6 5 6 6 6 6 6 5 5 5 5 5 6 6
6 2 8 8 8 6 5 6 9 9 9 8 6 9 12 11 12 12 10 9 9 10 9 9 10 11 9 9 8 9 7 6 9 7 6 6 6 5 5 5 6 6 5 4 3 4 6 7 7 7 7 7 5 6 7 7 7 6 6 5 4 5 6 6 6 6 6 6 5 5 4 5 4 4 5 5 5 5 5 5 6 6 6 6 6 6
3 4 3 1 7 8 9 9 10 12 12 11 11 10 9 10 12 13 13 12 11 12 10 9 8 7 7 7 6 7 7 4 5 6 7 6 6 5 6 6 5 6 4 4 3 4 5 6 6 6 7 6 5 5 6 7 6 6 6 5 5 5 7 6 6 6 6 5 5 5 4 4 5 5 4 5 5 6 6 5 5 5 5 7 5 5
1 10 6 9 8 5 4 5 2 5 6 6 9 10 12 12 13 13 12 13 12 11 9 9 7 5 5 5 7 6 7 5 3 4 5 5 5 5 6 6 5 5 4 3 3 4 5 5 6 6 5 4 3 4 5 6 6 6 5 5 4 5 6 6 6 6 6 6 6 5 5 5 6 5 5 5 5 5 7 9 11 8 5 5 6 7
3 3 1 2 5 6 5 4 1 6 8 5 5 3 4 5 10 11 10 9 8 8 10 10 8 5 4 2 1 6 7 6 5 4 5 4 4 3 3 5 5 4 3 3 4 4 5 4 4 5 5 4 3 4 5 5 6 6 5 5 4 5 5 5 5 5 5 5 6 5 4 5 5 5 5 5 5 5 4 4 7 10 11 9 7 6
Wind_Direction
182 166 186 205 189 150 172 194 204 193 147 102 142 222 250 266 255 233 246 267 220 288 265 282 275 261 276 278 308 60 167 189 201 207 205 207 207 210 210 211 204 213 209 175 146 136 150 150 152 146 151 160 141 143 153 153 153 154 160 150 150 148 149 149 150 150 148 146 140 141 156 156 152 145 143 152 159 176 173 175 175 176 172 169 169 175
189 194 220 163 143 173 188 186 119 101 228 215 249 258 267 201 280 202 274 286 64 219 271 218 269 268 266 278 314 74 172 200 202 208 209 210 210 211 214 213 208 215 176 145 148 143 147 151 154 147 154 162 161 158 159 165 161 156 151 150 148 143 146 150 151 146 151 154 162 159 158 149 147 146 153 156 161 169 174 180 181 180 176 173 173 174
187 211 186 160 170 89 78 140 167 173 174 178 233 263 274 263 240 256 261 289 250 207 255 309 283 283 285 321 296 285 228 227 213 209 208 207 208 211 211 211 203 208 210 183 169 160 158 152 152 153 157 163 165 161 167 167 163 158 157 145 143 144 151 150 145 148 160 155 157 153 151 151 143 147 156 159 164 169 172 179 181 179 177 175 178 175
190 236 198 183 137 124 75 120 147 111 151 192 203 227 257 76 314 291 186 42 142 221 304 293 288 283 299 291 282 294 285 249 246 232 228 221 213 209 208 202 201 206 207 189 178 169 162 161 158 158 159 159 159 162 165 156 159 162 158 143 145 150 154 152 152 142 145 149 146 141 144 144 145 152 152 153 158 168 173 174 175 177 181 181 178 176
183 16 124 126 176 163 161 149 145 195 224 202 223 237 254 192 225 216 281 358 281 251 232 261 274 269 270 286 259 197 274 276 238 230 235 231 231 227 214 210 208 208 208 194 180 169 164 163 163 158 156 156 157 163 158 152 155 157 153 142 142 149 150 152 146 139 135 131 129 123 125 128 121 124 142 151 161 168 171 167 174 177 183 178 176 174
215 176 126 136 153 184 133 159 201 180 245 228 215 224 233 217 232 217 300 324 295 279 145 228 240 245 152 276 256 265 292 261 246 238 225 224 224 222 220 213 206 210 210 204 191 177 167 166 158 157 157 157 156 158 161 152 144 141 146 150 154 147 147 144 141 140 139 149 148 144 145 145 148 151 164 174 170 169 170 173 169 168 175 173 170 169
226 138 174 162 163 179 192 199 198 189 238 252 248 197 217 221 220 185 153 169 250 246 86 326 295 275 295 264 245 264 277 267 253 239 241 227 222 222 221 214 205 199 199 156 188 170 162 164 162 161 161 162 161 157 155 148 140 145 150 158 154 147 142 140 142 145 148 158 165 165 165 164 163 164 172 173 169 169 168 161 162 157 160 164 159 154
144 146 167 129 151 157 172 229 196 184 184 226 264 171 197 197 200 196 185 207 246 5 251 167 245 267 284 271 212 275 287 276 262 240 241 239 226 222 222 216 209 199 196 195 192 177 168 163 164 166 162 161 155 154 153 149 139 148 148 145 150 145 142 144 146 153 166 168 172 170 168 167 171 172 162 162 162 159 156 155 148 146 144 138 150 155
154 169 175 162 167 169 211 219 138 175 183 230 165 172 173 194 202 164 187 199 247 293 271 170 143 236 234 235 137 318 296 310 26 30 236 232 230 228 220 210 191 196 205 205 187 171 166 162 161 163 162 162 148 163 167 149 142 148 143 143 151 149 145 149 156 165 176 176 171 171 170 167 167 157 150 150 151 150 148 137 130 132 135 121 113 151
270 183 196 169 168 204 208 167 165 176 204 254 131 104 83 104 107 182 183 185 190 214 253 154 197 264 268 253 261 126 268 314 355 0 25 158 212 225 203 164 160 163 174 195 162 154 154 155 156 159 147 156 148 161 157 143 138 148 148 151 157 151 151 156 165 175 177 170 161 160 161 148 151 152 147 148 146 146 148 135 134 130 142 151 153 143
35 334 158 151 196 210 195 175 164 184 163 97 135 125 104 79 95 87 82 179 167 235 249 129 200 245 291 311 321 356 29 335 322 330 15 130 162 196 157 140 139 137 121 131 128 134 139 136 152 137 145 147 136 158 154 152 143 147 149 157 164 157 157 164 173 177 172 167 167 163 158 149 151 154 148 147 147 146 146 146 140 148 146 152 148 151
282 70 165 222 142 63 181 128 30 279 67 216 110 163 141 125 128 148 111 206 227 255 82 209 216 210 232 189 103 353 333 326 306 295 306 288 194 151 154 141 135 121 123 118 114 104 82 95 111 135 151 143 153 165 155 159 146 150 152 159 161 162 163 172 175 179 165 163 164 159 155 150 147 152 157 159 155 156 151 149 149 142 142 141 135 141
248 232 244 289 229 189 164 222 114 156 194 195 179 183 219 152 143 199 185 205 217 249 105 138 177 170 234 325 355 343 351 347 330 296 289 262 189 154 141 142 133 130 121 110 110 114 124 161 114 143 160 148 165 191 162 163 148 149 154 161 163 167 169 172 175 175 161 162 161 160 154 146 148 151 148 147 146 151 152 152 150 155 152 142 144 147
248 219 299 252 285 207 189 221 162 187 181 177 190 183 181 185 144 230 175 352 316 255 207 213 129 277 346 319 18 354 357 4 6 351 238 169 150 145 121 115 122 131 135 135 141 146 140 145 178 179 186 167 157 182 180 175 158 153 155 160 161 167 173 166 168 166 166 167 161 158 151 147 150 145 145 145 147 151 149 152 159 163 155 153 149 150
231 227 212 158 223 159 191 215 211 223 160 190 124 183 204 175 183 198 198 226 241 289 80 77 173 219 201 81 6 11 8 37 40 64 104 120 119 126 128 117 122 133 140 147 143 144 142 155 170 192 216 180 155 164 181 181 179 162 159 133 99 58 16 158 161 171 178 167 158 156 149 151 153 147 152 150 149 154 155 162 163 160 149 144 144 147
229 262 283 204 6 160 186 197 101 103 112 154 163 66 233 225 149 246 64 263 232 181 162 169 256 343 308 43 6 19 39 45 35 59 92 105 122 131 135 128 124 129 139 145 143 139 124 141 160 168 209 182 171 163 175 176 176 171 137 117 123 128 109 292 226 183 174 167 161 156 156 159 152 144 143 143 152 160 163 161 165 154 147 128 128 122
90 240 323 294 136 204 189 145 194 168 229 158 166 199 214 27 131 92 109 51 71 339 224 61 277 207 240 218 58 43 47 40 33 39 70 115 125 123 122 119 119 122 127 136 137 144 131 145 181 181 188 153 171 164 168 174 169 152 141 147 142 141 163 197 195 192 162 163 162 165 164 158 154 153 157 159 163 162 153 148 147 137 133 123 128 133
216 245 306 155 214 220 358 252 101 13 116 115 212 202 80 183 29 147 228 86 196 242 236 115 220 283 208 179 68 56 42 28 32 46 54 92 106 98 89 109 109 95 104 133 139 140 143 143 159 175 170 156 177 154 164 157 161 156 162 156 157 162 185 186 165 160 161 161 171 167 164 162 160 161 157 152 154 152 147 142 136 129 136 142 134 137
177 274 247 235 308 108 354 160 104 87 316 254 331 135 193 169 204 38 129 209 175 211 243 171 273 257 253 66 65 57 30 360 10 57 85 95 85 95 96 92 92 99 104 122 134 144 163 161 147 161 173 166 162 174 163 144 133 158 173 173 169 171 170 158 162 172 171 173 167 165 166 162 158 157 153 150 148 152 154 154 156 153 138 136 142 144
309 220 261 198 175 23 17 206 208 168 135 96 140 141 10 260 186 175 198 2 247 221 118 200 182 231 176 49 50 23 32 355 348 69 93 108 109 94 86 77 91 90 86 117 140 158 176 176 163 160 174 168 158 164 161 152 153 173 179 166 153 137 168 190 160 161 162 166 152 147 148 157 160 157 158 153 154 159 156 153 154 148 150 154 153 151
162 283 243 51 270 315 184 285 234 170 179 151 192 188 164 55 325 7 63 259 260 177 201 193 215 187 68 355 342 17 25 33 8 83 69 87 99 111 111 117 116 115 118 123 139 158 151 168 171 168 173 175 152 140 137 149 170 178 170 170 163 176 177 179 181 181 168 155 157 156 163 159 155 155 158 159 165 159 152 150 155 156 147 143 154 151
125 173 209 314 280 241 312 12 172 197 264 248 198 196 195 152 168 186 207 97 263 216 189 186 227 81 77 317 15 28 74 79 92 117 99 60 57 73 118 119 117 114 108 89 68 66 70 67 86 53 76 102 161 155 145 150 175 170 161 172 178 184 189 176 180 180 165 168 159 164 161 158 157 161 163 162 163 156 153 155 157 144 147 156 154 164
198 140 127 200 229 270 94 80 16 7 101 100 249 6 5 355 263 198 224 171 145 75 41 17 257 101 359 102 68 92 105 111 106 91 87 85 83 84 80 78 81 80 73 78 81 81 74 59 57 53 65 113 174 171 140 137 164 225 185 181 184 191 190 186 177 171 169 166 165 163 155 152 157 161 163 162 164 163 159 153 145 153 158 157 157 168
174 82 158 257 348 286 270 69 103 101 161 133 78 52 27 217 355 290 284 166 167 128 177 147 233 99 73 98 105 126 112 85 69 71 85 65 49 54 59 55 57 60 56 55 48 45 48 57 63 83 88 70 69 82 80 130 187 215 215 197 194 186 179 179 174 174 174 165 162 158 156 160 160 162 164 169 170 165 156 150 152 163 163 157 159 163
193 254 179 134 170 75 143 157 133 112 89 46 43 31 350 307 174 232 124 28 177 187 281 183 221 140 140 117 117 95 73 66 63 56 60 72 63 62 61 61 57 60 61 58 54 51 47 50 43 49 73 65 59 76 82 157 129 133 126 156 147 150 168 181 168 172 173 161 155 161 164 162 161 165 170 172 165 158 151 153 156 160 160 153 161 155
65 81 181 190 177 187 171 193 200 192 142 348 61 0 31 27 25 189 197 161 227 142 171 213 128 94 124 133 106 90 95 75 65 68 69 67 70 68 72 70 64 65 64 65 60 55 52 47 43 38 50 65 62 73 85 73 93 92 115 132 143 158 170 177 183 168 152 163 158 162 171 167 165 166 170 165 155 151 154 152 154 154 154 160 153 133
107 90 36 246 235 237 70 42 37 332 247 179 352 23 0 3 322 245 42 162 217 149 195 31 116 141 136 128 91 79 82 85 73 65 68 72 74 76 76 75 72 70 60 63 61 58 54 47 45 39 32 62 69 66 74 86 100 97 97 86 83 98 143 173 151 150 158 172 169 154 156 164 151 117 77 51 35 79 107 127 145 158 155 151 141 135
84 77 44 70 58 62 10 279 336 342 102 52 21 6 5 7 3 242 193 233 104 122 215 110 155 138 141 110 112 108 89 83 81 76 76 76 75 76 80 81 76 68 63 65 59 58 52 47 40 37 39 46 55 59 75 71 69 69 71 86 88 107 120 112 134 150 162 178 137 159 160 155 103 96 121 134 132 117 107 107 120 121 123 138 142 153
132 117 281 72 71 63 49 76 100 92 70 78 61 38 28 15 40 108 348 327 319 220 212 148 152 129 92 98 100 80 96 102 90 85 84 86 84 82 80 76 71 67 66 65 66 55 53 54 50 46 43 41 37 45 44 45 46 58 65 59 58 55 67 70 74 77 85 78 68 56 61 67 77 113 181 122 122 113 110 117 111 109 110 116 118 131
106 60 109 116 105 45 34 50 115 114 112 67 47 46 46 58 65 71 63 38 245 283 120 136 107 89 89 86 90 91 99 101 98 93 85 79 75 76 72 72 75 72 64 64 63 65 60 58 52 44 43 42 35 39 41 39 36 35 45 61 54 60 65 69 77 83 74 72 76 76 83 91 95 110 108 79 74 81 93 44 96 67 86 113 114 114
277 130 141 144 96 40 8 41 72 107 126 84 57 45 37 64 80 65 59 29 69 98 106 112 107 93 68 97 99 98 98 102 89 79 71 68 70 74 75 71 73 73 75 66 48 54 58 56 49 44 46 42 36 31 40 46 47 46 38 31 45 57 61 67 74 80 88 89 82 77 70 80 89 96 97 120 129 106 119 170 356 68 90 63 77 108
52 134 181 162 125 120 7 17 52 90 91 96 59 28 17 10 44 19 36 357 343 137 127 115 111 124 135 117 107 97 90 81 79 75 74 67 63 64 66 68 64 64 61 62 56 57 60 57 49 44 45 42 38 39 37 43 52 53 45 41 39 36 47 52 55 62 70 76 85 87 80 60 79 81 84 91 95 111 59 118 131 149 128 135 130 102
129 141 161 149 138 147 38 347 9 347 278 136 32 350 337 345 12 123 45 32 1 142 136 151 125 127 136 132 109 82 81 76 70 63 72 72 68 68 68 66 63 57 52 50 54 66 64 59 55 51 50 51 46 45 39 48 59 55 48 46 35 50 51 50 48 49 46 52 72 79 89 103 95 90 89 95 103 114 150 116 107 92 96 91 67 74
153 139 128 140 155 141 73 357 310 164 207 140 359 319 313 315 353 74 48 20 40 55 91 86 119 131 129 130 120 115 93 77 76 67 57 61 73 76 73 70 67 61 56 48 52 54 62 61 58 56 56 58 56 52 43 45 55 57 57 59 53 54 52 54 46 42 41 38 32 44 77 92 91 78 75 71 88 94 97 91 70 67 66 85 93 100
138 115 106 28 124 144 134 132 155 224 109 83 319 18 13 53 64 79 61 41 81 103 107 109 116 120 115 107 108 109 103 90 74 67 57 54 59 65 70 66 61 58 56 52 52 49 50 59 62 61 57 52 51 52 52 44 42 58 56 55 58 54 55 53 53 43 38 41 34 31 35 54 73 77 76 81 78 82 89 93 92 78 73 91 120 162
156 129 123 72 64 94 147 174 192 93 122 107 126 31 334 286 335 78 63 34 36 97 122 117 115 111 113 112 106 105 105 100 80 61 59 57 53 60 70 73 66 55 54 44 46 49 50 48 53 54 55 48 53 54 58 53 32 50 52 52 52 54 51 53 54 43 36 39 38 37 33 38 49 51 59 59 59 72 74 71 70 75 83 102 114 117
282 91 115 103 315 149 119 92 74 122 142 113 133 20 2 356 348 353 76 30 30 54 130 123 121 120 121 123 121 122 124 102 74 57 50 57 58 61 68 73 72 71 66 51 44 41 44 49 53 45 47 52 57 59 52 47 46 50 55 51 43 47 46 50 52 40 35 37 32 35 36 40 46 48 48 52 56 51 56 56 50 46 48 91 82 80
319 230 210 132 143 207 138 119 129 153 188 118 37 10 357 329 306 273 235 85 77 92 126 128 131 134 129 130 139 143 169 88 72 54 23 42 58 71 65 66 70 74 76 76 48 37 37 39 44 43 47 50 50 44 49 49 50 57 59 54 43 45 46 47 44 36 36 34 27 27 31 36 44 52 49 51 51 51 49 49 43 32 23 66 71 65
3 19 89 116 142 154 143 137 153 166 77 39 336 325 328 328 288 266 259 90 91 134 125 126 114 125 128 133 134 295 137 88 103 87 31 39 64 68 74 70 70 68 70 64 69 53 37 41 46 46 49 50 48 33 33 56 59 59 58 54 55 53 49 43 43 38 34 30 27 31 31 32 34 39 44 50 44 40 50 51 42 28 18 30 72 80
5 341 66 101 97 41 125 94 126 28 79 13 329 320 314 315 274 239 194 136 146 144 127 122 112 108 90 61 41 56 65 121 135 131 96 76 65 49 77 86 78 75 71 77 69 69 57 49 58 53 48 46 38 23 23 43 66 62 59 53 57 57 52 47 43 41 39 38 40 41 37 34 39 38 36 40 41 35 31 32 51 41 37 15 13 41
330 6 21 77 88 86 82 95 87 107 66 358 324 319 310 283 259 217 120 80 142 137 134 124 124 124 135 123 47 92 46 71 113 131 131 117 98 85 72 64 72 79 86 83 81 73 65 50 57 58 55 51 37 32 35 37 64 63 56 56 59 53 45 40 43 44 42 37 41 42 39 38 39 43 47 42 41 40 40 37 40 48 52 32 13 36
33 354 77 20 35 43 30 86 91 79 46 321 317 314 292 265 187 58 346 245 144 142 142 138 132 127 131 107 111 109 111 116 125 131 129 106 94 92 88 88 83 76 69 72 79 81 73 56 56 63 61 54 61 52 46 56 68 68 62 61 62 51 34 36 34 36 33 38 41 40 38 37 32 30 34 36 37 43 45 36 38 43 52 65 43 40
346 26 28 23 312 202 4 105 134 117 71 2 327 303 18 336 36 311 167 136 143 139 129 108 103 120 116 103 104 110 116 118 117 121 115 111 107 100 100 96 95 99 96 86 72 64 82 78 63 57 57 47 45 43 55 64 68 64 57 59 55 52 54 49 39 41 43 37 38 34 34 31 31 29 24 28 34 46 50 41 41 35 37 43 61 71
282 114 110 87 338 51 50 50 60 346 318 348 4 31 354 335 303 308 149 117 87 93 105 112 107 115 116 115 116 110 112 111 103 101 97 99 102 98 96 98 99 97 91 86 91 93 87 86 77 70 58 55 50 43 42 65 72 65 62 53 32 40 45 49 50 52 54 49 45 35 29 24 24 22 21 24 32 47 53 49 49 48 39 31 35 37
350 49 355 92 323 31 75 104 43 54 35 29 44 60 37 16 24 39 68 76 104 73 66 96 99 96 109 116 113 119 117 108 109 108 108 102 93 90 90 84 83 89 91 92 91 88 89 92 94 88 75 63 59 51 49 55 74 70 63 36 25 38 49 49 47 51 49 48 44 41 39 37 32 24 21 20 25 32 33 35 34 48 35 34 38 36
175 93 131 77 88 96 74 63 81 59 56 57 50 38 46 41 39 45 59 79 50 68 76 103 100 102 93 97 112 103 105 113 104 96 90 85 88 84 88 85 79 84 88 91 85 80 90 92 86 83 79 68 59 62 55 54 63 70 64 45 43 48 60 64 65 62 59 54 46 39 44 46 44 41 33 31 34 38 36 32 36 38 37 39 44 46
50 148 58 107 176 275 61 34 57 71 73 62 59 56 54 53 49 60 59 61 73 78 81 73 90 95 96 86 90 105 106 106 100 95 95 91 92 97 97 95 86 81 86 82 72 80 83 80 78 76 75 69 54 59 62 62 61 60 58 54 55 64 70 72 73 73 68 65 63 54 44 44 37 45 44 33 35 40 39 35 38 38 33 27 21 26
94 348 77 66 76 76 98 75 79 79 78 74 67 68 66 67 68 68 76 72 70 67 66 78 87 89 91 92 97 99 100 102 112 113 111 109 113 113 109 109 108 95 76 81 78 79 82 79 82 82 79 73 58 57 57 55 51 45 45 52 56 73 75 68 64 68 65 60 62 57 52 61 46 46 60 45 37 36 41 39 34 40 34 23 14 9
312 292 68 61 97 90 86 89 99 91 82 85 87 83 81 80 82 81 81 81 78 77 67 52 60 84 91 105 103 105 106 99 105 123 122 123 123 121 119 116 107 104 109 101 75 68 86 93 88 84 80 72 56 53 54 50 46 39 41 44 54 67 77 77 71 65 57 54 58 58 49 51 46 48 58 72 69 61 42 37 46 49 56 36 20 17
105 87 113 111 94 98 100 141 192 83 90 99 105 111 112 107 100 97 93 89 89 89 86 89 62 63 98 117 132 127 123 120 108 112 114 114 116 118 120 115 112 112 100 87 89 97 103 103 110 105 96 86 65 56 54 49 46 45 46 48 53 66 77 76 72 64 57 55 52 44 40 40 41 35 43 50 61 82 89 66 51 39 43 66 45 50
51 131 213 80 106 116 122 117 32 93 108 110 124 112 111 129 129 130 137 148 146 142 146 138 132 120 117 106 126 140 133 132 131 117 114 114 111 109 111 123 127 125 121 118 115 106 104 108 107 107 94 81 68 60 54 54 49 50 47 47 51 61 70 72 72 69 68 61 55 35 36 45 41 37 36 37 42 53 62 101 95 65 42 36 33 38